SCP
0 -0 -0 0 0 0 0 0 0 0 -0 0 0 0 0 0 0 0 0 0 -0 -0 -0 -0 -0 -0 -0 -0 0 0 0 0 0 0 0 0 0 0 0 0 0 0 0 0 0 0 0
0 0 0 0 0 0 0 -0 -0 -0 0 0 -0 -0 -0 -0 0 0 0 0 -0 -0 -0 -0 -0 -0 -0 0 0 0 -0 0 0 0 0 0 0 0 0 0 0 0 0 0 0 0 0
0 0 0 0 0 0 -0 -0 -0 -0 -0 -0 -0 -0 0 0 0 0 0 0 -0 -0 -0 -0 -0 -0 -0 0 0 0 -0 -0 -0 0 0 0 0 0 0 0 0 0 0 0 0 0 0
0 0 0 0 0 0 0 -0 -0 -0 -0 -0 -0 0 0 0 0 0 0 0 -0 -0 -0 0 -0 -0 -0 0 -0 -0 -0 0 0 -0 0 0 0 0 0 0 0 0 0 0 0 0 0
0 0 0 0 0 0 0 0 -0 -0 -0 -0 -0 -0 0 0 0 0 0 0 -0 0 0 0 0 -0 0 0 -0 0 -0 -0 0 0 0 -0 0 0 0 0 0 0 0 0 0 0 0
0 0 0 0 0 0 0 -0 -0 -0 -0 -0 -0 -0 -0 0 0 -0 0 -0 0 0 0 0 0 0 0 0 0 -0 -0 -0 -0 0 0 0 0 0 0 0 0 0 0 0 0 0 0
0 0 0 0 0 0 0 -0 -0 -0 -0 -0 -0 -0 -0 -0 -0 0 0 0 0 0 0 0 0 0 -0 -0 -0 -0 0 -0 -0 -0 -0 0 0 0 0 0 0 0 0 0 0 0 0
0 0 0 0 0 0 0 0 -0 -0 -0 -0 -0 -0 0 0 0 0 0 0 0 0 0 0 0 -0 -0 0 -0 0 0 -0 0 0 0 0 -0 0 0 0 0 0 0 0 0 0 0
0 0 0 0 0 0 0 0 0 0 0 0 0 0 0 0 0 0 0 0 0 0 0 0 0 0 0 -0 -0 -0 0 -0 -0 0 0 0 0 0 0 0 0 0 0 0 0 0 0
-0 -0 0 0 0 0 0 0 0 0 0 0 0 0 0 0 0 0 0 0 0 0 0 0 0 0 0 -0 -0 0 0 0 -0 0 0 0 0 0 0 0 0 0 0 0 0 0 0
-0 -0 -0 -0 -0 -0 0 0 0 0 -0 0 0 0 0 0 0 0 0 0 0 0 0 0 0 0 0 0 0 0 0 0 -0 0 0 0 0 0 0 -0 0 0 0 0 0 0 0
-0 -0 -0 -0 0 0 -0 -0 0 0 0 0 0 0 0 0 0 0 0 0 0 0 0 0 0 0 0 0 0 0 0 0 0 0 0 -0 -0 0 0 0 0 0 0 0 0 0 0
-0 -0 -0 -0 0 -0 -0 0 0 0 0 0 0 0 0 0 0 0 0 0 0 0 0 0 0 0 0 0 0 0 0 0 0 0 0 -0 -0 0 0 0 0 0 0 0 0 0 0
0 0 0 -0 -0 -0 0 0 0 0 0 0 0 0 0 0 0 0 0 0 0 0 0 0 0 0 0 0 0 0 0 0 0 0 0 0 0 0 0 0 0 -0 0 0 0 0 0
0 0 0 0 0 0 0 -0 0 0 0 0 0 0 0 0 0 0 0 0 0 0 0 0 0 0 0 0 0 0 0 0 0 0 0 0 0 -0 -0 -0 0 -0 0 -0 0 0 0
0 0 0 0 0 0 0 0 -0 0 0 0 0 0 0 0 0 0 0 0 0 0 0 0 0 0 0 0 0 0 0 0 0 0 0 0 -0 0 0 -0 -0 -0 0 0 0 0 0
0 0 0 0 0 0 0 0 0 0 0 -0 0 0 0 0 0 0 0 0 0 0 0 0 0 0 0 0 0 0 0 -0 0 0 -0 0 -0 0 0 0 -0 0 0 0 0 0 0
0 0 0 0 0 0 0 0 0 0 0 0 0 0 0 0 0 0 0 0 0 0 0 0 0 0 0 0 0 0 0 0 -0 -0 0 -0 0 0 -0 0 0 0 0 0 0 0 0
0 0 0 0 0 0 0 0 0 0 0 0 0 0 0 0 0 0 0 0 0 0 0 0 0 0 0 -0 0 0 0 0 0 -0 -0 0 -0 -0 0 0 0 -0 -0 -0 0 0 0
0 0 0 0 0 0 0 0 0 0 0 0 0 0 0 0 0 0 0 0 0 0 0 0 0 -0 -0 0 0 0 0 0 0 0 -0 -0 -0 -0 -0 0 0 0 0 0 0 0 0
0 0 0 0 0 0 0 0 0 0 0 0 0 0 0 0 0 0 0 0 0 0 0 0 0 -0 0 0 -0 -0 0 0 0 0 -0 0 -0 -0 -0 0 0 0 0 0 0 0 0
0 0 0 0 0 0 0 0 0 0 0 0 0 0 0 0 0 0 0 0 0 0 0 0 -0 -0 0 0 0 -0 0 0 0 0 -0 0 -0 0 -0 -0 -0 -0 0 0 0 -0 -0
0 0 0 0 0 0 0 0 0 0 0 0 0 0 0 0 0 0 0 0 0 0 0 -0 -0 -0 -0 -0 0 0 0 -0 0 0 0 0 -0 -0 -0 0 -0 -0 -0 0 -0 -0 -0
0 0 0 0 0 0 0 0 0 0 0 0 0 0 0 0 0 0 0 0 0 0 -0 -0 -0 -0 0 -0 -0 0 0 0 0 0 0 0 -0 -0 -0 -0 0 -0 0 0 0 0 -0
0 0 0 0 0 0 0 0 0 0 0 0 0 0 0 0 0 0 0 0 0 0 -0 -0 -0 -0 -0 0 0 0 0 0 0 0 0 0 -0 0 0 -0 -0 -0 0 0 -0 0 -0
0 0 0 0 0 0 0 0 0 0 0 0 0 0 0 0 0 0 0 0 0 0 -0 -0 0 -0 0 0 0 0 0 0 0 0 0 0 -0 0 0 0 -0 -0 0 0 -0 -0 0
0 0 0 0 0 0 0 0 0 0 0 0 0 0 0 0 0 0 0 0 0 0 0 -0 -0 0 0 -0 0 0 0 0 0 0 0 0 0 0 -0 0 0 0 0 0 -0 0 0
0 0 0 0 0 0 0 0 0 0 0 0 0 0 0 0 0 0 -0 -0 0 0 0 0 0 0 -0 -0 -0 0 0 0 0 0 0 0 0 0 0 0 0 0 -0 -0 0 -0 0
0 0 0 0 0 0 0 0 0 0 0 0 0 0 0 0 0 0 -0 -0 -0 -0 0 0 0 -0 0 -0 0 0 0 0 0 0 0 0 0 0 0 0 0 -0 -0 -0 -0 0 0
Wind_Speed_500mb
33 33 33 34 36 36 35 33 31 29 27 25 24 24 24 24 25 24 24 22 25 31 33 35 37 41 28 6 8 19 17 26 20 13 14 15 22 30 48 39 58 56 59 58 59 57 44
34 35 36 36 37 36 36 35 34 33 30 28 26 25 24 24 24 20 20 18 25 31 31 33 29 31 14 7 20 21 19 27 17 15 12 17 21 25 36 50 49 43 63 71 69 48 55
34 34 35 36 37 37 37 37 36 34 32 30 28 26 25 25 26 22 20 20 26 32 34 23 24 21 3 13 26 26 25 21 18 13 16 18 25 26 11 31 50 60 52 48 49 70 55
35 35 35 36 37 38 38 39 39 37 35 32 29 26 24 24 26 21 19 23 28 33 19 22 14 10 5 22 31 29 25 27 20 17 15 18 17 34 40 38 34 33 44 48 67 49 58
37 37 39 39 40 40 41 43 43 43 40 37 35 32 30 29 28 25 22 28 30 19 13 14 14 6 4 21 29 22 25 26 26 24 18 14 15 35 33 33 33 41 49 62 59 56 48
40 41 43 44 44 44 43 43 43 45 45 43 41 40 36 32 28 26 27 31 21 9 22 10 11 5 5 25 34 30 22 28 22 16 17 17 20 25 28 33 45 55 53 54 56 47 54
42 43 43 45 46 47 48 47 44 45 47 46 44 43 38 32 26 22 27 20 12 6 14 11 9 11 19 29 25 19 21 20 12 16 24 18 23 28 35 43 57 48 55 48 43 45 48
42 42 43 44 47 49 51 52 49 47 47 48 47 45 38 27 20 16 22 9 8 10 18 22 22 24 22 15 28 19 16 15 23 21 19 20 32 29 31 37 46 50 53 56 38 31 43
41 41 43 44 47 51 54 55 54 51 50 50 50 48 36 17 8 15 6 9 9 19 14 8 8 15 11 23 22 18 15 23 22 26 23 33 33 26 24 32 41 46 52 49 49 29 41
42 44 45 48 49 52 55 57 58 58 55 53 50 46 31 6 4 10 3 14 20 9 9 12 5 3 14 26 18 30 11 18 19 22 25 27 27 31 33 37 37 48 46 44 50 46 41
43 45 47 48 50 51 55 56 57 57 58 57 50 38 27 6 1 6 10 19 15 4 9 5 4 6 21 13 20 8 16 20 28 32 27 40 37 26 33 37 37 36 43 39 40 44 49
45 47 50 52 53 53 55 56 57 56 58 56 48 26 8 6 6 8 21 14 8 12 3 3 5 16 19 15 22 13 22 24 28 26 29 39 33 32 34 26 23 30 27 37 38 30 36
46 46 50 54 58 57 55 57 58 57 57 57 43 10 4 6 5 18 22 2 11 10 4 3 13 20 30 17 22 17 26 22 13 16 20 31 26 32 43 39 30 27 32 24 34 37 37
46 49 51 56 61 63 63 58 60 59 57 56 40 6 5 3 12 18 11 12 11 8 10 15 16 34 18 20 17 26 21 24 4 19 26 15 19 16 15 46 39 44 39 31 36 32 40
44 47 48 55 61 67 69 66 61 59 58 57 31 6 5 7 12 20 17 9 6 8 9 18 29 16 16 9 21 19 22 17 9 11 16 22 14 21 23 22 37 47 28 48 47 43 32
45 45 48 49 55 60 67 70 69 61 56 57 24 6 7 10 14 12 10 8 7 7 17 17 18 12 27 31 26 17 17 9 13 12 9 18 27 20 8 24 21 43 2 14 29 32 35
46 47 49 52 54 57 59 66 71 67 57 53 14 8 5 7 12 9 6 10 15 13 17 11 20 32 28 23 23 20 12 24 10 14 25 29 18 19 26 12 31 9 15 25 28 33 18
47 49 50 51 57 60 59 60 68 72 61 52 16 7 8 19 13 3 8 15 19 13 11 15 18 23 22 26 23 29 26 16 29 26 27 32 12 25 29 13 21 19 34 7 10 33 26
49 50 49 48 53 54 58 60 57 68 56 51 24 9 11 12 5 12 16 18 16 17 10 9 16 16 28 33 16 16 25 25 24 29 13 11 14 19 22 15 19 22 30 28 42 9 34
49 49 48 46 47 52 58 64 62 65 45 34 12 7 1 6 8 12 21 11 10 9 24 14 20 27 25 26 26 20 36 25 32 32 36 23 27 29 27 34 18 16 20 25 22 21 28
52 50 45 47 49 55 62 66 58 51 28 20 7 5 7 8 9 19 18 15 18 13 8 22 13 19 22 20 37 46 41 30 36 44 38 10 22 32 36 41 35 35 35 32 34 36 36
52 48 45 48 53 59 63 61 51 35 21 9 10 10 11 35 17 17 2 10 17 12 24 27 27 28 29 37 41 52 52 41 18 14 33 11 11 27 38 38 40 43 41 39 40 40 37
48 46 47 50 54 60 57 49 42 17 20 8 9 11 6 16 14 11 10 16 29 35 22 20 23 31 41 45 52 67 72 70 42 17 14 15 11 19 30 29 28 32 40 42 43 41 42
44 46 47 50 57 56 47 42 31 22 9 19 21 20 5 9 10 18 22 33 29 35 37 54 44 32 35 62 70 60 53 42 32 27 22 16 30 20 12 15 19 28 11 16 23 28 38
46 47 50 54 53 50 43 34 23 18 14 22 23 17 7 8 22 34 11 32 36 40 35 37 31 31 45 41 17 21 10 6 6 4 10 20 23 11 10 19 29 37 28 31 23 29 31
49 50 55 54 52 48 43 35 27 22 13 18 25 23 25 11 10 17 45 32 18 17 22 21 28 34 22 8 8 10 10 13 9 13 4 15 20 14 8 11 10 12 10 9 9 30 23
52 54 55 56 52 46 42 36 27 25 17 17 25 25 28 17 29 19 14 22 13 14 10 33 22 17 5 11 5 8 8 14 10 14 8 3 6 23 23 13 12 9 4 11 17 4 13
54 55 56 53 49 45 41 35 29 26 19 22 25 25 28 27 53 53 51 38 24 15 6 20 23 3 11 11 6 8 8 8 7 19 12 7 8 4 13 11 11 15 18 21 17 17 21
55 53 52 51 47 43 41 36 32 27 20 18 27 22 28 36 50 64 64 65 68 62 42 11 15 24 9 3 3 9 8 7 18 9 5 5 5 6 6 6 18 43 56 81 68 49 42
Wind_Direction_500mb
23 21 21 21 18 16 14 13 10 7 5 1 357 355 354 354 353 352 351 346 344 341 344 343 340 346 6 345 53 322 337 355 355 336 262 257 248 234 238 233 232 239 243 246 245 252 237
29 26 22 20 18 16 12 8 5 1 357 354 350 349 348 348 350 347 347 344 337 334 335 333 339 348 4 59 355 356 328 327 319 327 283 250 242 248 271 256 246 238 245 250 253 236 246
27 25 23 23 19 16 12 7 4 2 359 355 349 345 343 342 344 340 342 338 333 328 327 337 340 359 350 13 3 350 332 307 297 279 304 286 253 243 274 256 254 256 262 259 245 243 238
28 27 24 21 19 15 11 9 7 6 2 359 355 346 341 336 338 335 331 329 330 321 325 343 6 14 263 355 358 352 332 338 308 271 269 293 265 243 250 260 278 252 245 247 238 229 239
26 23 21 17 13 9 5 5 6 5 3 -0 356 351 343 338 340 338 336 335 331 329 344 349 22 315 79 333 341 332 327 324 318 287 266 263 237 241 236 235 251 236 239 231 248 231 222
25 23 22 19 15 10 6 4 2 1 358 356 353 349 344 337 340 341 344 343 340 326 351 22 342 254 271 336 333 325 336 317 304 275 254 238 242 240 228 231 232 232 235 245 259 239 229
27 24 22 20 16 13 10 6 1 358 355 351 348 346 342 335 338 340 347 341 328 235 321 294 309 289 296 316 325 316 330 328 293 258 259 238 260 257 256 242 251 265 267 254 270 243 254
19 19 15 16 13 9 8 7 3 356 353 348 343 342 339 332 339 350 6 31 26 327 298 285 261 265 284 309 309 315 332 309 309 282 264 253 248 263 276 272 262 245 252 256 258 264 244
14 13 11 9 7 5 3 1 0 358 353 347 342 339 338 326 344 1 45 26 350 336 266 264 245 283 296 310 296 287 300 312 288 283 268 263 274 300 268 255 250 253 246 249 248 244 237
14 11 9 4 3 3 1 358 356 356 354 348 341 339 340 319 53 359 10 324 333 320 269 143 196 203 305 313 255 304 261 304 271 284 298 278 287 269 256 256 250 247 249 247 250 247 244
10 6 3 1 360 360 356 354 353 353 353 348 341 339 337 150 349 9 306 319 311 164 274 70 157 311 311 292 301 329 278 307 281 290 281 273 283 268 246 258 248 261 243 247 247 239 248
10 8 5 2 358 356 355 352 350 349 350 351 343 342 43 63 33 343 343 336 151 232 237 147 284 325 313 314 312 300 294 292 277 280 271 281 273 267 258 269 266 258 255 249 241 265 244
8 8 8 8 6 359 354 351 350 348 348 352 344 333 82 33 327 333 342 237 251 270 97 56 330 323 318 303 316 331 321 307 302 305 307 314 262 244 232 253 243 235 234 234 223 225 238
4 2 3 5 3 4 4 354 351 349 348 350 346 265 207 350 335 337 327 246 266 17 312 336 316 309 297 338 333 328 310 310 235 280 302 316 309 346 302 230 236 237 231 236 232 228 230
356 1 3 1 2 360 358 360 353 350 350 349 351 209 195 283 323 337 289 260 299 339 344 319 313 293 310 288 313 317 317 315 313 349 320 314 302 302 287 275 231 247 226 260 260 281 241
348 348 351 354 355 354 353 354 355 353 353 351 1 208 231 289 312 322 273 281 283 286 306 303 302 298 313 325 311 323 311 319 304 300 322 311 302 315 338 271 226 247 313 291 239 255 234
344 342 342 344 346 350 352 354 354 351 353 355 4 258 279 352 335 273 275 326 309 309 293 285 297 295 300 316 299 299 282 297 304 310 307 290 272 286 258 232 250 259 229 236 253 238 255
341 340 341 342 344 349 353 357 355 353 349 0 356 267 304 338 255 253 283 339 325 298 279 262 280 282 295 301 289 289 286 264 300 304 297 292 287 280 279 253 202 200 241 271 268 226 248
341 340 340 344 343 343 349 350 351 350 348 349 334 295 324 357 340 326 321 295 271 289 295 286 292 285 302 287 296 289 287 288 288 289 291 330 248 279 261 166 205 232 214 205 239 278 278
341 340 338 339 338 340 345 342 340 338 341 349 332 308 324 26 352 320 333 305 307 269 280 272 268 299 293 292 275 276 281 282 277 272 284 285 260 259 277 299 310 290 273 274 269 277 253
338 337 336 336 336 337 337 336 337 339 351 1 342 30 346 302 333 321 298 283 303 318 287 295 283 260 298 295 298 288 282 292 288 276 279 257 248 258 266 276 277 276 271 261 252 260 263
335 336 336 334 337 337 337 339 345 347 15 27 2 345 323 295 304 301 356 293 298 319 310 284 285 298 303 285 282 290 291 291 265 263 217 208 266 263 267 260 257 265 266 260 254 251 253
335 336 335 333 336 338 342 345 349 352 10 353 337 327 285 305 308 313 309 327 313 314 309 273 288 303 293 289 294 289 288 281 269 243 212 188 224 252 254 244 257 265 261 254 252 247 241
336 337 337 334 335 337 343 345 353 348 329 332 305 302 282 283 323 302 295 306 305 307 294 294 297 288 287 305 302 288 273 264 260 266 194 202 222 236 266 267 249 249 285 284 294 267 245
335 333 329 331 331 333 338 341 346 345 327 300 314 294 253 266 299 296 305 313 304 304 302 301 297 306 311 309 307 315 326 226 189 230 188 213 223 242 234 229 266 282 271 246 256 269 250
333 329 329 329 329 329 334 336 325 333 315 303 287 294 262 282 235 305 308 299 293 311 303 304 316 312 309 290 330 318 342 321 324 314 163 203 227 232 247 253 259 13 88 43 290 269 243
327 329 329 328 325 323 328 330 315 313 306 284 292 282 281 259 275 271 274 301 281 272 281 301 338 315 257 315 351 318 313 342 307 309 326 169 183 226 238 246 256 345 37 326 252 26 6
326 329 331 331 330 327 325 324 317 307 323 289 280 278 271 274 283 275 272 264 260 235 254 309 315 225 303 339 332 353 307 328 291 296 315 315 313 240 223 247 256 13 322 226 265 320 331
325 328 330 331 331 328 326 323 318 307 294 296 283 277 280 267 269 285 277 264 258 256 258 252 285 316 278 301 305 306 307 302 314 305 121 -0 266 301 272 341 266 279 263 254 259 282 289
Wind_Speed_850mb
33 33 33 34 36 36 35 33 31 29 27 25 24 24 24 24 25 24 24 22 25 31 33 35 37 41 28 6 8 19 17 26 20 13 14 15 22 30 48 39 58 56 59 58 59 57 44
34 35 36 36 37 36 36 35 34 33 30 28 26 25 24 24 24 20 20 18 25 31 31 33 29 31 14 7 20 21 19 27 17 15 12 17 21 25 36 50 49 43 63 71 69 48 55
34 34 35 36 37 37 37 37 36 34 32 30 28 26 25 25 26 22 20 20 26 32 34 23 24 21 3 13 26 26 25 21 18 13 16 18 25 26 11 31 50 60 52 48 49 70 55
35 35 35 36 37 38 38 39 39 37 35 32 29 26 24 24 26 21 19 23 28 33 19 22 14 10 5 22 31 29 25 27 20 17 15 18 17 34 40 38 34 33 44 48 67 49 58
37 37 39 39 40 40 41 43 43 43 40 37 35 32 30 29 28 25 22 28 30 19 13 14 14 6 4 21 29 22 25 26 26 24 18 14 15 35 33 33 33 41 49 62 59 56 48
40 41 43 44 44 44 43 43 43 45 45 43 41 40 36 32 28 26 27 31 21 9 22 10 11 5 5 25 34 30 22 28 22 16 17 17 20 25 28 33 45 55 53 54 56 47 54
42 43 43 45 46 47 48 47 44 45 47 46 44 43 38 32 26 22 27 20 12 6 14 11 9 11 19 29 25 19 21 20 12 16 24 18 23 28 35 43 57 48 55 48 43 45 48
42 42 43 44 47 49 51 52 49 47 47 48 47 45 38 27 20 16 22 9 8 10 18 22 22 24 22 15 28 19 16 15 23 21 19 20 32 29 31 37 46 50 53 56 38 31 43
41 41 43 44 47 51 54 55 54 51 50 50 50 48 36 17 8 15 6 9 9 19 14 8 8 15 11 23 22 18 15 23 22 26 23 33 33 26 24 32 41 46 52 49 49 29 41
42 44 45 48 49 52 55 57 58 58 55 53 50 46 31 6 4 10 3 14 20 9 9 12 5 3 14 26 18 30 11 18 19 22 25 27 27 31 33 37 37 48 46 44 50 46 41
43 45 47 48 50 51 55 56 57 57 58 57 50 38 27 6 1 6 10 19 15 4 9 5 4 6 21 13 20 8 16 20 28 32 27 40 37 26 33 37 37 36 43 39 40 44 49
45 47 50 52 53 53 55 56 57 56 58 56 48 26 8 6 6 8 21 14 8 12 3 3 5 16 19 15 22 13 22 24 28 26 29 39 33 32 34 26 23 30 27 37 38 30 36
46 46 50 54 58 57 55 57 58 57 57 57 43 10 4 6 5 18 22 2 11 10 4 3 13 20 30 17 22 17 26 22 13 16 20 31 26 32 43 39 30 27 32 24 34 37 37
46 49 51 56 61 63 63 58 60 59 57 56 40 6 5 3 12 18 11 12 11 8 10 15 16 34 18 20 17 26 21 24 4 19 26 15 19 16 15 46 39 44 39 31 36 32 40
44 47 48 55 61 67 69 66 61 59 58 57 31 6 5 7 12 20 17 9 6 8 9 18 29 16 16 9 21 19 22 17 9 11 16 22 14 21 23 22 37 47 28 48 47 43 32
45 45 48 49 55 60 67 70 69 61 56 57 24 6 7 10 14 12 10 8 7 7 17 17 18 12 27 31 26 17 17 9 13 12 9 18 27 20 8 24 21 43 2 14 29 32 35
46 47 49 52 54 57 59 66 71 67 57 53 14 8 5 7 12 9 6 10 15 13 17 11 20 32 28 23 23 20 12 24 10 14 25 29 18 19 26 12 31 9 15 25 28 33 18
47 49 50 51 57 60 59 60 68 72 61 52 16 7 8 19 13 3 8 15 19 13 11 15 18 23 22 26 23 29 26 16 29 26 27 32 12 25 29 13 21 19 34 7 10 33 26
49 50 49 48 53 54 58 60 57 68 56 51 24 9 11 12 5 12 16 18 16 17 10 9 16 16 28 33 16 16 25 25 24 29 13 11 14 19 22 15 19 22 30 28 42 9 34
49 49 48 46 47 52 58 64 62 65 45 34 12 7 1 6 8 12 21 11 10 9 24 14 20 27 25 26 26 20 36 25 32 32 36 23 27 29 27 34 18 16 20 25 22 21 28
52 50 45 47 49 55 62 66 58 51 28 20 7 5 7 8 9 19 18 15 18 13 8 22 13 19 22 20 37 46 41 30 36 44 38 10 22 32 36 41 35 35 35 32 34 36 36
52 48 45 48 53 59 63 61 51 35 21 9 10 10 11 35 17 17 2 10 17 12 24 27 27 28 29 37 41 52 52 41 18 14 33 11 11 27 38 38 40 43 41 39 40 40 37
48 46 47 50 54 60 57 49 42 17 20 8 9 11 6 16 14 11 10 16 29 35 22 20 23 31 41 45 52 67 72 70 42 17 14 15 11 19 30 29 28 32 40 42 43 41 42
44 46 47 50 57 56 47 42 31 22 9 19 21 20 5 9 10 18 22 33 29 35 37 54 44 32 35 62 70 60 53 42 32 27 22 16 30 20 12 15 19 28 11 16 23 28 38
46 47 50 54 53 50 43 34 23 18 14 22 23 17 7 8 22 34 11 32 36 40 35 37 31 31 45 41 17 21 10 6 6 4 10 20 23 11 10 19 29 37 28 31 23 29 31
49 50 55 54 52 48 43 35 27 22 13 18 25 23 25 11 10 17 45 32 18 17 22 21 28 34 22 8 8 10 10 13 9 13 4 15 20 14 8 11 10 12 10 9 9 30 23
52 54 55 56 52 46 42 36 27 25 17 17 25 25 28 17 29 19 14 22 13 14 10 33 22 17 5 11 5 8 8 14 10 14 8 3 6 23 23 13 12 9 4 11 17 4 13
54 55 56 53 49 45 41 35 29 26 19 22 25 25 28 27 53 53 51 38 24 15 6 20 23 3 11 11 6 8 8 8 7 19 12 7 8 4 13 11 11 15 18 21 17 17 21
55 53 52 51 47 43 41 36 32 27 20 18 27 22 28 36 50 64 64 65 68 62 42 11 15 24 9 3 3 9 8 7 18 9 5 5 5 6 6 6 18 43 56 81 68 49 42
Wind_Direction_850mb
23 21 21 21 18 16 14 13 10 7 5 1 357 355 354 354 353 352 351 346 344 341 344 343 340 346 6 345 53 322 337 355 355 336 262 257 248 234 238 233 232 239 243 246 245 252 237
29 26 22 20 18 16 12 8 5 1 357 354 350 349 348 348 350 347 347 344 337 334 335 333 339 348 4 59 355 356 328 327 319 327 283 250 242 248 271 256 246 238 245 250 253 236 246
27 25 23 23 19 16 12 7 4 2 359 355 349 345 343 342 344 340 342 338 333 328 327 337 340 359 350 13 3 350 332 307 297 279 304 286 253 243 274 256 254 256 262 259 245 243 238
28 27 24 21 19 15 11 9 7 6 2 359 355 346 341 336 338 335 331 329 330 321 325 343 6 14 263 355 358 352 332 338 308 271 269 293 265 243 250 260 278 252 245 247 238 229 239
26 23 21 17 13 9 5 5 6 5 3 -0 356 351 343 338 340 338 336 335 331 329 344 349 22 315 79 333 341 332 327 324 318 287 266 263 237 241 236 235 251 236 239 231 248 231 222
25 23 22 19 15 10 6 4 2 1 358 356 353 349 344 337 340 341 344 343 340 326 351 22 342 254 271 336 333 325 336 317 304 275 254 238 242 240 228 231 232 232 235 245 259 239 229
27 24 22 20 16 13 10 6 1 358 355 351 348 346 342 335 338 340 347 341 328 235 321 294 309 289 296 316 325 316 330 328 293 258 259 238 260 257 256 242 251 265 267 254 270 243 254
19 19 15 16 13 9 8 7 3 356 353 348 343 342 339 332 339 350 6 31 26 327 298 285 261 265 284 309 309 315 332 309 309 282 264 253 248 263 276 272 262 245 252 256 258 264 244
14 13 11 9 7 5 3 1 0 358 353 347 342 339 338 326 344 1 45 26 350 336 266 264 245 283 296 310 296 287 300 312 288 283 268 263 274 300 268 255 250 253 246 249 248 244 237
14 11 9 4 3 3 1 358 356 356 354 348 341 339 340 319 53 359 10 324 333 320 269 143 196 203 305 313 255 304 261 304 271 284 298 278 287 269 256 256 250 247 249 247 250 247 244
10 6 3 1 360 360 356 354 353 353 353 348 341 339 337 150 349 9 306 319 311 164 274 70 157 311 311 292 301 329 278 307 281 290 281 273 283 268 246 258 248 261 243 247 247 239 248
10 8 5 2 358 356 355 352 350 349 350 351 343 342 43 63 33 343 343 336 151 232 237 147 284 325 313 314 312 300 294 292 277 280 271 281 273 267 258 269 266 258 255 249 241 265 244
8 8 8 8 6 359 354 351 350 348 348 352 344 333 82 33 327 333 342 237 251 270 97 56 330 323 318 303 316 331 321 307 302 305 307 314 262 244 232 253 243 235 234 234 223 225 238
4 2 3 5 3 4 4 354 351 349 348 350 346 265 207 350 335 337 327 246 266 17 312 336 316 309 297 338 333 328 310 310 235 280 302 316 309 346 302 230 236 237 231 236 232 228 230
356 1 3 1 2 360 358 360 353 350 350 349 351 209 195 283 323 337 289 260 299 339 344 319 313 293 310 288 313 317 317 315 313 349 320 314 302 302 287 275 231 247 226 260 260 281 241
348 348 351 354 355 354 353 354 355 353 353 351 1 208 231 289 312 322 273 281 283 286 306 303 302 298 313 325 311 323 311 319 304 300 322 311 302 315 338 271 226 247 313 291 239 255 234
344 342 342 344 346 350 352 354 354 351 353 355 4 258 279 352 335 273 275 326 309 309 293 285 297 295 300 316 299 299 282 297 304 310 307 290 272 286 258 232 250 259 229 236 253 238 255
341 340 341 342 344 349 353 357 355 353 349 0 356 267 304 338 255 253 283 339 325 298 279 262 280 282 295 301 289 289 286 264 300 304 297 292 287 280 279 253 202 200 241 271 268 226 248
341 340 340 344 343 343 349 350 351 350 348 349 334 295 324 357 340 326 321 295 271 289 295 286 292 285 302 287 296 289 287 288 288 289 291 330 248 279 261 166 205 232 214 205 239 278 278
341 340 338 339 338 340 345 342 340 338 341 349 332 308 324 26 352 320 333 305 307 269 280 272 268 299 293 292 275 276 281 282 277 272 284 285 260 259 277 299 310 290 273 274 269 277 253
338 337 336 336 336 337 337 336 337 339 351 1 342 30 346 302 333 321 298 283 303 318 287 295 283 260 298 295 298 288 282 292 288 276 279 257 248 258 266 276 277 276 271 261 252 260 263
335 336 336 334 337 337 337 339 345 347 15 27 2 345 323 295 304 301 356 293 298 319 310 284 285 298 303 285 282 290 291 291 265 263 217 208 266 263 267 260 257 265 266 260 254 251 253
335 336 335 333 336 338 342 345 349 352 10 353 337 327 285 305 308 313 309 327 313 314 309 273 288 303 293 289 294 289 288 281 269 243 212 188 224 252 254 244 257 265 261 254 252 247 241
336 337 337 334 335 337 343 345 353 348 329 332 305 302 282 283 323 302 295 306 305 307 294 294 297 288 287 305 302 288 273 264 260 266 194 202 222 236 266 267 249 249 285 284 294 267 245
335 333 329 331 331 333 338 341 346 345 327 300 314 294 253 266 299 296 305 313 304 304 302 301 297 306 311 309 307 315 326 226 189 230 188 213 223 242 234 229 266 282 271 246 256 269 250
333 329 329 329 329 329 334 336 325 333 315 303 287 294 262 282 235 305 308 299 293 311 303 304 316 312 309 290 330 318 342 321 324 314 163 203 227 232 247 253 259 13 88 43 290 269 243
327 329 329 328 325 323 328 330 315 313 306 284 292 282 281 259 275 271 274 301 281 272 281 301 338 315 257 315 351 318 313 342 307 309 326 169 183 226 238 246 256 345 37 326 252 26 6
326 329 331 331 330 327 325 324 317 307 323 289 280 278 271 274 283 275 272 264 260 235 254 309 315 225 303 339 332 353 307 328 291 296 315 315 313 240 223 247 256 13 322 226 265 320 331
325 328 330 331 331 328 326 323 318 307 294 296 283 277 280 267 269 285 277 264 258 256 258 252 285 316 278 301 305 306 307 302 314 305 121 -0 266 301 272 341 266 279 263 254 259 282 289